{"data":{"norad_id":65677,"epoch":"2026-09-20T04:38:59.041824Z","epoch_age_seconds":135013,"freshness":"FRESH","line1":"1 65677U 25212B   26263.19373891  .00009817  00000+0  30123-3 0  9999","line2":"2 65677  53.1568 159.3437 0001034  69.4612 290.6501 15.34408534 57078","mean_motion":15.34408534,"eccentricity":0.0001034,"inclination_deg":53.1568,"raan_deg":159.3437,"arg_perigee_deg":69.4612,"mean_anomaly_deg":290.6501,"bstar":0.00030123,"rev_number":5707,"period_min":93.847236123362,"perigee_km":461.97053522008,"apogee_km":463.38521573633,"semimajor_km":6840.8148754782,"source":"CELESTRAK","updated_at":"2026-09-21T09:00:35.684545Z"}}